owner,sensor,date,latitude,longitude,vertical_datum,sea_water_temperature,qcFlag
BP,ioos:station:wmo:42375:1,2021-09-05T18:19:00Z,28.5211,-88.2888,22.0,622.2,11144222
BP,ioos:station:wmo:42375:1,2021-09-05T18:39:00Z,28.5211,-88.2888,22.0,621.4,11144222
BP,ioos:station:wmo:42375:1,2021-09-05T18:59:00Z,28.5211,-88.2888,22.0,620.8,11144222
BP,ioos:station:wmo:42375:1,2021-09-05T19:19:00Z,28.5211,-88.2888,22.0,620.0,11144222
BP,ioos:station:wmo:42375:1,2021-09-05T19:39:00Z,28.5211,-88.2888,22.0,619.5,11144222
BP,ioos:station:wmo:42375:1,2021-09-05T19:59:00Z,28.5211,-88.2888,22.0,619.6,11144222
BP,ioos:station:wmo:42375:1,2021-09-05T20:19:00Z,28.5211,-88.2888,22.0,619.6,11144222
BP,ioos:station:wmo:42375:1,2021-09-05T20:39:00Z,28.5211,-88.2888,22.0,619.1,11144222
BP,ioos:station:wmo:42375:1,2021-09-05T20:59:00Z,28.5211,-88.2888,22.0,619.8,11144222
BP,ioos:station:wmo:42375:1,2021-09-05T21:19:00Z,28.5211,-88.2888,22.0,619.9,11144222
BP,ioos:station:wmo:42375:1,2021-09-05T21:39:00Z,28.5211,-88.2888,22.0,619.8,11144222
BP,ioos:station:wmo:42375:1,2021-09-05T21:59:00Z,28.5211,-88.2888,22.0,619.9,11144222
BP,ioos:station:wmo:42375:1,2021-09-05T22:19:00Z,28.5211,-88.2888,22.0,619.9,11144222
BP,ioos:station:wmo:42375:1,2021-09-05T22:39:00Z,28.5211,-88.2888,22.0,619.9,11144222
BP,ioos:station:wmo:42375:1,2021-09-05T22:59:00Z,28.5211,-88.2888,22.0,619.7,11144222
BP,ioos:station:wmo:42375:1,2021-09-05T23:19:00Z,28.5211,-88.2888,22.0,619.0,11144222
BP,ioos:station:wmo:42375:1,2021-09-05T23:39:00Z,28.5211,-88.2888,22.0,618.8,11144222
BP,ioos:station:wmo:42375:1,2021-09-05T23:59:00Z,28.5211,-88.2888,22.0,619.3,11144222
BP,ioos:station:wmo:42375:1,2021-09-06T00:19:00Z,28.5211,-88.2888,22.0,619.2,11144222
BP,ioos:station:wmo:42375:1,2021-09-06T00:39:00Z,28.5211,-88.2888,22.0,618.8,11144222
BP,ioos:station:wmo:42375:1,2021-09-06T00:59:00Z,28.5211,-88.2888,22.0,619.1,11144222
BP,ioos:station:wmo:42375:1,2021-09-06T01:19:00Z,28.5211,-88.2888,22.0,618.8,11144222
BP,ioos:station:wmo:42375:1,2021-09-06T01:39:00Z,28.5211,-88.2888,22.0,619.0,11144222
BP,ioos:station:wmo:42375:1,2021-09-06T01:59:00Z,28.5211,-88.2888,22.0,618.7,11144222
BP,ioos:station:wmo:42375:1,2021-09-06T02:19:00Z,28.5211,-88.2888,22.0,618.8,11144222
BP,ioos:station:wmo:42375:1,2021-09-06T02:39:00Z,28.5211,-88.2888,22.0,618.7,11144222
BP,ioos:station:wmo:42375:1,2021-09-06T02:59:00Z,28.5211,-88.2888,22.0,618.9,11144222
BP,ioos:station:wmo:42375:1,2021-09-06T03:19:00Z,28.5211,-88.2888,22.0,618.9,11144222
BP,ioos:station:wmo:42375:1,2021-09-06T03:39:00Z,28.5211,-88.2888,22.0,619.1,11144222
BP,ioos:station:wmo:42375:1,2021-09-06T03:59:00Z,28.5211,-88.2888,22.0,618.7,11144222
BP,ioos:station:wmo:42375:1,2021-09-06T04:19:00Z,28.5211,-88.2888,22.0,618.7,11144222
BP,ioos:station:wmo:42375:1,2021-09-06T04:39:00Z,28.5211,-88.2888,22.0,618.8,11144222
BP,ioos:station:wmo:42375:1,2021-09-06T04:59:00Z,28.5211,-88.2888,22.0,618.7,11144222
BP,ioos:station:wmo:42375:1,2021-09-06T05:19:00Z,28.5211,-88.2888,22.0,618.9,11144222
BP,ioos:station:wmo:42375:1,2021-09-06T05:39:00Z,28.5211,-88.2888,22.0,619.1,11144222
BP,ioos:station:wmo:42375:1,2021-09-06T05:59:00Z,28.5211,-88.2888,22.0,618.7,11144222
BP,ioos:station:wmo:42375:1,2021-09-06T06:19:00Z,28.5211,-88.2888,22.0,619.1,11144222
BP,ioos:station:wmo:42375:1,2021-09-06T06:39:00Z,28.5211,-88.2888,22.0,618.7,11144222
BP,ioos:station:wmo:42375:1,2021-09-06T06:59:00Z,28.5211,-88.2888,22.0,618.8,11144222
BP,ioos:station:wmo:42375:1,2021-09-06T07:19:00Z,28.5211,-88.2888,22.0,619.0,11144222
BP,ioos:station:wmo:42375:1,2021-09-06T07:39:00Z,28.5211,-88.2888,22.0,618.8,11144222
BP,ioos:station:wmo:42375:1,2021-09-06T07:59:00Z,28.5211,-88.2888,22.0,618.7,11144222
BP,ioos:station:wmo:42375:1,2021-09-06T08:19:00Z,28.5211,-88.2888,22.0,618.7,11144222
BP,ioos:station:wmo:42375:1,2021-09-06T08:39:00Z,28.5211,-88.2888,22.0,618.7,11144222
BP,ioos:station:wmo:42375:1,2021-09-06T08:59:00Z,28.5211,-88.2888,22.0,618.9,11144222
BP,ioos:station:wmo:42375:1,2021-09-06T09:19:00Z,28.5211,-88.2888,22.0,618.7,11144222
BP,ioos:station:wmo:42375:1,2021-09-06T09:39:00Z,28.5211,-88.2888,22.0,618.7,11144222
BP,ioos:station:wmo:42375:1,2021-09-06T09:59:00Z,28.5211,-88.2888,22.0,618.9,11144222
BP,ioos:station:wmo:42375:1,2021-09-06T10:19:00Z,28.5211,-88.2888,22.0,618.9,11144222
BP,ioos:station:wmo:42375:1,2021-09-06T10:39:00Z,28.5211,-88.2888,22.0,618.7,11144222
BP,ioos:station:wmo:42375:1,2021-09-06T10:59:00Z,28.5211,-88.2888,22.0,618.7,11144222
BP,ioos:station:wmo:42375:1,2021-09-06T11:19:00Z,28.5211,-88.2888,22.0,618.9,11144222
BP,ioos:station:wmo:42375:1,2021-09-06T11:39:00Z,28.5211,-88.2888,22.0,618.9,11144222
BP,ioos:station:wmo:42375:1,2021-09-06T11:59:00Z,28.5211,-88.2888,22.0,618.8,11144222
BP,ioos:station:wmo:42375:1,2021-09-06T12:19:00Z,28.5211,-88.2888,22.0,618.9,11144222
BP,ioos:station:wmo:42375:1,2021-09-06T12:39:00Z,28.5211,-88.2888,22.0,618.7,11144222
BP,ioos:station:wmo:42375:1,2021-09-06T12:59:00Z,28.5211,-88.2888,22.0,619.0,11144222
BP,ioos:station:wmo:42375:1,2021-09-06T13:19:00Z,28.5211,-88.2888,22.0,618.9,11144222
BP,ioos:station:wmo:42375:1,2021-09-06T13:39:00Z,28.5211,-88.2888,22.0,618.7,11144222
BP,ioos:station:wmo:42375:1,2021-09-06T13:59:00Z,28.5211,-88.2888,22.0,618.8,11144222
BP,ioos:station:wmo:42375:1,2021-09-06T14:19:00Z,28.5211,-88.2888,22.0,618.9,11144222
BP,ioos:station:wmo:42375:1,2021-09-06T14:39:00Z,28.5211,-88.2888,22.0,618.7,11144222
BP,ioos:station:wmo:42375:1,2021-09-06T14:59:00Z,28.5211,-88.2888,22.0,618.7,11144222
BP,ioos:station:wmo:42375:1,2021-09-06T15:19:00Z,28.5211,-88.2888,22.0,618.7,11144222
BP,ioos:station:wmo:42375:1,2021-09-06T15:39:00Z,28.5211,-88.2888,22.0,618.9,11144222
BP,ioos:station:wmo:42375:1,2021-09-06T15:59:00Z,28.5211,-88.2888,22.0,618.9,11144222
BP,ioos:station:wmo:42375:1,2021-09-06T16:19:00Z,28.5211,-88.2888,22.0,618.7,11144222
BP,ioos:station:wmo:42375:1,2021-09-06T16:39:00Z,28.5211,-88.2888,22.0,618.7,11144222
BP,ioos:station:wmo:42375:1,2021-09-06T16:59:00Z,28.5211,-88.2888,22.0,618.9,11144222
BP,ioos:station:wmo:42375:1,2021-09-06T17:19:00Z,28.5211,-88.2888,22.0,618.7,11144222
BP,ioos:station:wmo:42375:1,2021-09-06T17:39:00Z,28.5211,-88.2888,22.0,618.7,11144222
BP,ioos:station:wmo:42375:1,2021-09-06T17:59:00Z,28.5211,-88.2888,22.0,618.7,11144222
BP,ioos:station:wmo:42375:1,2021-09-06T18:19:00Z,28.5211,-88.2888,22.0,618.9,11144222
BP,ioos:station:wmo:42375:1,2021-09-06T18:39:00Z,28.5211,-88.2888,22.0,619.0,11144222
BP,ioos:station:wmo:42375:1,2021-09-06T18:59:00Z,28.5211,-88.2888,22.0,618.8,11144222
BP,ioos:station:wmo:42375:1,2021-09-06T19:19:00Z,28.5211,-88.2888,22.0,618.9,11144222
BP,ioos:station:wmo:42375:1,2021-09-06T19:39:00Z,28.5211,-88.2888,22.0,618.7,11144222
BP,ioos:station:wmo:42375:1,2021-09-06T19:59:00Z,28.5211,-88.2888,22.0,618.8,11144222
BP,ioos:station:wmo:42375:1,2021-09-06T20:19:00Z,28.5211,-88.2888,22.0,618.7,11144222
BP,ioos:station:wmo:42375:1,2021-09-06T20:39:00Z,28.5211,-88.2888,22.0,618.7,11144222
BP,ioos:station:wmo:42375:1,2021-09-06T20:59:00Z,28.5211,-88.2888,22.0,618.7,11144222
BP,ioos:station:wmo:42375:1,2021-09-06T21:19:00Z,28.5211,-88.2888,22.0,618.8,11144222
BP,ioos:station:wmo:42375:1,2021-09-06T21:39:00Z,28.5211,-88.2888,22.0,618.9,11144222
BP,ioos:station:wmo:42375:1,2021-09-06T21:59:00Z,28.5211,-88.2888,22.0,618.9,11144222
BP,ioos:station:wmo:42375:1,2021-09-06T22:19:00Z,28.5211,-88.2888,22.0,618.9,11144222
BP,ioos:station:wmo:42375:1,2021-09-06T22:39:00Z,28.5211,-88.2888,22.0,618.8,11144222
BP,ioos:station:wmo:42375:1,2021-09-06T22:59:00Z,28.5211,-88.2888,22.0,618.9,11144222
BP,ioos:station:wmo:42375:1,2021-09-06T23:19:00Z,28.5211,-88.2888,22.0,618.8,11144222
BP,ioos:station:wmo:42375:1,2021-09-06T23:39:00Z,28.5211,-88.2888,22.0,619.0,11144222
BP,ioos:station:wmo:42375:1,2021-09-06T23:59:00Z,28.5211,-88.2888,22.0,618.7,11144222
BP,ioos:station:wmo:42375:1,2021-09-07T00:19:00Z,28.5211,-88.2888,22.0,618.9,11144222
BP,ioos:station:wmo:42375:1,2021-09-07T00:39:00Z,28.5211,-88.2888,22.0,618.7,11144222
BP,ioos:station:wmo:42375:1,2021-09-07T00:59:00Z,28.5211,-88.2888,22.0,619.0,11144222
BP,ioos:station:wmo:42375:1,2021-09-07T01:19:00Z,28.5211,-88.2888,22.0,618.9,11144222
BP,ioos:station:wmo:42375:1,2021-09-07T01:39:00Z,28.5211,-88.2888,22.0,618.7,11144222
BP,ioos:station:wmo:42375:1,2021-09-07T01:59:00Z,28.5211,-88.2888,22.0,618.7,11144222
BP,ioos:station:wmo:42375:1,2021-09-07T02:19:00Z,28.5211,-88.2888,22.0,618.9,11144222
BP,ioos:station:wmo:42375:1,2021-09-07T02:39:00Z,28.5211,-88.2888,22.0,618.7,11144222
BP,ioos:station:wmo:42375:1,2021-09-07T02:59:00Z,28.5211,-88.2888,22.0,618.7,11144222
BP,ioos:station:wmo:42375:1,2021-09-07T03:19:00Z,28.5211,-88.2888,22.0,618.7,11144222
BP,ioos:station:wmo:42375:1,2021-09-07T03:39:00Z,28.5211,-88.2888,22.0,618.7,11144222
BP,ioos:station:wmo:42375:1,2021-09-07T03:59:00Z,28.5211,-88.2888,22.0,618.7,11144222
BP,ioos:station:wmo:42375:1,2021-09-07T04:19:00Z,28.5211,-88.2888,22.0,618.7,11144222
BP,ioos:station:wmo:42375:1,2021-09-07T04:39:00Z,28.5211,-88.2888,22.0,618.7,11144222
BP,ioos:station:wmo:42375:1,2021-09-07T04:59:00Z,28.5211,-88.2888,22.0,618.7,11144222
BP,ioos:station:wmo:42375:1,2021-09-07T05:19:00Z,28.5211,-88.2888,22.0,618.7,11144222
BP,ioos:station:wmo:42375:1,2021-09-07T05:39:00Z,28.5211,-88.2888,22.0,619.0,11144222
BP,ioos:station:wmo:42375:1,2021-09-07T05:59:00Z,28.5211,-88.2888,22.0,618.9,11144222
BP,ioos:station:wmo:42375:1,2021-09-07T06:19:00Z,28.5211,-88.2888,22.0,618.7,11144222
BP,ioos:station:wmo:42375:1,2021-09-07T06:39:00Z,28.5211,-88.2888,22.0,618.8,11144222
BP,ioos:station:wmo:42375:1,2021-09-07T06:59:00Z,28.5211,-88.2888,22.0,618.9,11144222
BP,ioos:station:wmo:42375:1,2021-09-07T07:19:00Z,28.5211,-88.2888,22.0,618.7,11144222
BP,ioos:station:wmo:42375:1,2021-09-07T07:39:00Z,28.5211,-88.2888,22.0,618.9,11144222
BP,ioos:station:wmo:42375:1,2021-09-07T07:59:00Z,28.5211,-88.2888,22.0,618.7,11144222
BP,ioos:station:wmo:42375:1,2021-09-07T08:19:00Z,28.5211,-88.2888,22.0,618.8,11144222
BP,ioos:station:wmo:42375:1,2021-09-07T08:39:00Z,28.5211,-88.2888,22.0,618.9,11144222
BP,ioos:station:wmo:42375:1,2021-09-07T08:59:00Z,28.5211,-88.2888,22.0,618.9,11144222
BP,ioos:station:wmo:42375:1,2021-09-07T09:19:00Z,28.5211,-88.2888,22.0,618.9,11144222
BP,ioos:station:wmo:42375:1,2021-09-07T09:39:00Z,28.5211,-88.2888,22.0,618.7,11144222
BP,ioos:station:wmo:42375:1,2021-09-07T09:59:00Z,28.5211,-88.2888,22.0,618.8,11144222
BP,ioos:station:wmo:42375:1,2021-09-07T10:19:00Z,28.5211,-88.2888,22.0,618.7,11144222
BP,ioos:station:wmo:42375:1,2021-09-07T10:39:00Z,28.5211,-88.2888,22.0,618.9,11144222
BP,ioos:station:wmo:42375:1,2021-09-07T10:59:00Z,28.5211,-88.2888,22.0,618.9,11144222
BP,ioos:station:wmo:42375:1,2021-09-07T11:19:00Z,28.5211,-88.2888,22.0,618.9,11144222
BP,ioos:station:wmo:42375:1,2021-09-07T11:39:00Z,28.5211,-88.2888,22.0,618.8,11144222
BP,ioos:station:wmo:42375:1,2021-09-07T11:59:00Z,28.5211,-88.2888,22.0,618.9,11144222
BP,ioos:station:wmo:42375:1,2021-09-07T12:19:00Z,28.5211,-88.2888,22.0,618.9,11144222
BP,ioos:station:wmo:42375:1,2021-09-07T12:39:00Z,28.5211,-88.2888,22.0,618.9,11144222
BP,ioos:station:wmo:42375:1,2021-09-07T12:59:00Z,28.5211,-88.2888,22.0,618.7,11144222
BP,ioos:station:wmo:42375:1,2021-09-07T13:19:00Z,28.5211,-88.2888,22.0,618.7,11144222
BP,ioos:station:wmo:42375:1,2021-09-07T13:39:00Z,28.5211,-88.2888,22.0,618.7,11144222
BP,ioos:station:wmo:42375:1,2021-09-07T13:59:00Z,28.5211,-88.2888,22.0,618.7,11144222
BP,ioos:station:wmo:42375:1,2021-09-07T14:19:00Z,28.5211,-88.2888,22.0,618.7,11144222
BP,ioos:station:wmo:42375:1,2021-09-07T14:39:00Z,28.5211,-88.2888,22.0,618.7,11144222
BP,ioos:station:wmo:42375:1,2021-09-07T14:59:00Z,28.5211,-88.2888,22.0,618.7,11144222
BP,ioos:station:wmo:42375:1,2021-09-07T15:19:00Z,28.5211,-88.2888,22.0,618.9,11144222
BP,ioos:station:wmo:42375:1,2021-09-07T15:39:00Z,28.5211,-88.2888,22.0,618.7,11144222
BP,ioos:station:wmo:42375:1,2021-09-07T15:59:00Z,28.5211,-88.2888,22.0,618.9,11144222
BP,ioos:station:wmo:42375:1,2021-09-07T16:19:00Z,28.5211,-88.2888,22.0,618.7,11144222
BP,ioos:station:wmo:42375:1,2021-09-07T16:39:00Z,28.5211,-88.2888,22.0,618.9,11144222
BP,ioos:station:wmo:42375:1,2021-09-07T16:59:00Z,28.5211,-88.2888,22.0,618.9,11144222
BP,ioos:station:wmo:42375:1,2021-09-07T17:19:00Z,28.5211,-88.2888,22.0,618.9,11144222
BP,ioos:station:wmo:42375:1,2021-09-07T17:39:00Z,28.5211,-88.2888,22.0,618.8,11144222
BP,ioos:station:wmo:42375:1,2021-09-07T17:59:00Z,28.5211,-88.2888,22.0,618.7,11144222
BP,ioos:station:wmo:42375:1,2021-09-07T18:19:00Z,28.5211,-88.2888,22.0,618.7,11144222
BP,ioos:station:wmo:42375:1,2021-09-07T18:39:00Z,28.5211,-88.2888,22.0,618.8,11144222
BP,ioos:station:wmo:42375:1,2021-09-07T18:59:00Z,28.5211,-88.2888,22.0,618.7,11144222
BP,ioos:station:wmo:42375:1,2021-09-07T19:19:00Z,28.5211,-88.2888,22.0,618.9,11144222
BP,ioos:station:wmo:42375:1,2021-09-07T19:39:00Z,28.5211,-88.2888,22.0,618.9,11144222
BP,ioos:station:wmo:42375:1,2021-09-07T19:59:00Z,28.5211,-88.2888,22.0,618.7,11144222
BP,ioos:station:wmo:42375:1,2021-09-07T20:19:00Z,28.5211,-88.2888,22.0,618.8,11144222
BP,ioos:station:wmo:42375:1,2021-09-07T20:39:00Z,28.5211,-88.2888,22.0,618.9,11144222
BP,ioos:station:wmo:42375:1,2021-09-07T20:59:00Z,28.5211,-88.2888,22.0,618.7,11144222
BP,ioos:station:wmo:42375:1,2021-09-07T21:19:00Z,28.5211,-88.2888,22.0,618.9,11144222
BP,ioos:station:wmo:42375:1,2021-09-07T21:39:00Z,28.5211,-88.2888,22.0,618.7,11144222
BP,ioos:station:wmo:42375:1,2021-09-07T21:59:00Z,28.5211,-88.2888,22.0,618.7,11144222
BP,ioos:station:wmo:42375:1,2021-09-07T22:19:00Z,28.5211,-88.2888,22.0,618.8,11144222
BP,ioos:station:wmo:42375:1,2021-09-07T22:39:00Z,28.5211,-88.2888,22.0,618.7,11144222
BP,ioos:station:wmo:42375:1,2021-09-07T22:59:00Z,28.5211,-88.2888,22.0,618.7,11144222
BP,ioos:station:wmo:42375:1,2021-09-07T23:19:00Z,28.5211,-88.2888,22.0,618.7,11144222
BP,ioos:station:wmo:42375:1,2021-09-07T23:39:00Z,28.5211,-88.2888,22.0,618.9,11144222
BP,ioos:station:wmo:42375:1,2021-09-07T23:59:00Z,28.5211,-88.2888,22.0,618.7,11144222
BP,ioos:station:wmo:42375:1,2021-09-08T00:19:00Z,28.5211,-88.2888,22.0,618.9,11144222
BP,ioos:station:wmo:42375:1,2021-09-08T00:39:00Z,28.5211,-88.2888,22.0,618.9,11144222
BP,ioos:station:wmo:42375:1,2021-09-08T00:59:00Z,28.5211,-88.2888,22.0,618.9,11144222
BP,ioos:station:wmo:42375:1,2021-09-08T01:19:00Z,28.5211,-88.2888,22.0,618.9,11144222
BP,ioos:station:wmo:42375:1,2021-09-08T01:39:00Z,28.5211,-88.2888,22.0,618.8,11144222
BP,ioos:station:wmo:42375:1,2021-09-08T01:59:00Z,28.5211,-88.2888,22.0,618.7,11144222
BP,ioos:station:wmo:42375:1,2021-09-08T02:19:00Z,28.5211,-88.2888,22.0,618.9,11144222
BP,ioos:station:wmo:42375:1,2021-09-08T02:39:00Z,28.5211,-88.2888,22.0,618.9,11144222
BP,ioos:station:wmo:42375:1,2021-09-08T02:59:00Z,28.5211,-88.2888,22.0,618.8,11144222
BP,ioos:station:wmo:42375:1,2021-09-08T03:19:00Z,28.5211,-88.2888,22.0,618.7,11144222
BP,ioos:station:wmo:42375:1,2021-09-08T03:39:00Z,28.5211,-88.2888,22.0,618.8,11144222
BP,ioos:station:wmo:42375:1,2021-09-08T03:59:00Z,28.5211,-88.2888,22.0,618.9,11144222
BP,ioos:station:wmo:42375:1,2021-09-08T04:19:00Z,28.5211,-88.2888,22.0,618.7,11144222
BP,ioos:station:wmo:42375:1,2021-09-08T04:39:00Z,28.5211,-88.2888,22.0,618.8,11144222
BP,ioos:station:wmo:42375:1,2021-09-08T04:59:00Z,28.5211,-88.2888,22.0,618.7,11144222
BP,ioos:station:wmo:42375:1,2021-09-08T05:19:00Z,28.5211,-88.2888,22.0,618.7,11144222
BP,ioos:station:wmo:42375:1,2021-09-08T05:39:00Z,28.5211,-88.2888,22.0,618.9,11144222
BP,ioos:station:wmo:42375:1,2021-09-08T05:59:00Z,28.5211,-88.2888,22.0,618.9,11144222
BP,ioos:station:wmo:42375:1,2021-09-08T06:19:00Z,28.5211,-88.2888,22.0,618.7,11144222
BP,ioos:station:wmo:42375:1,2021-09-08T06:39:00Z,28.5211,-88.2888,22.0,618.7,11144222
BP,ioos:station:wmo:42375:1,2021-09-08T06:59:00Z,28.5211,-88.2888,22.0,618.7,11144222
BP,ioos:station:wmo:42375:1,2021-09-08T07:19:00Z,28.5211,-88.2888,22.0,618.9,11144222
BP,ioos:station:wmo:42375:1,2021-09-08T07:39:00Z,28.5211,-88.2888,22.0,618.9,11144222
BP,ioos:station:wmo:42375:1,2021-09-08T07:59:00Z,28.5211,-88.2888,22.0,618.7,11144222
BP,ioos:station:wmo:42375:1,2021-09-08T08:19:00Z,28.5211,-88.2888,22.0,618.7,11144222
BP,ioos:station:wmo:42375:1,2021-09-08T08:39:00Z,28.5211,-88.2888,22.0,618.7,11144222
BP,ioos:station:wmo:42375:1,2021-09-08T08:59:00Z,28.5211,-88.2888,22.0,618.7,11144222
BP,ioos:station:wmo:42375:1,2021-09-08T09:19:00Z,28.5211,-88.2888,22.0,618.7,11144222
BP,ioos:station:wmo:42375:1,2021-09-08T09:39:00Z,28.5211,-88.2888,22.0,618.9,11144222
BP,ioos:station:wmo:42375:1,2021-09-08T09:59:00Z,28.5211,-88.2888,22.0,618.8,11144222
BP,ioos:station:wmo:42375:1,2021-09-08T10:19:00Z,28.5211,-88.2888,22.0,618.7,11144222
BP,ioos:station:wmo:42375:1,2021-09-08T10:39:00Z,28.5211,-88.2888,22.0,618.7,11144222
BP,ioos:station:wmo:42375:1,2021-09-08T10:59:00Z,28.5211,-88.2888,22.0,618.8,11144222
BP,ioos:station:wmo:42375:1,2021-09-08T11:19:00Z,28.5211,-88.2888,22.0,618.7,11144222
BP,ioos:station:wmo:42375:1,2021-09-08T11:39:00Z,28.5211,-88.2888,22.0,618.7,11144222
BP,ioos:station:wmo:42375:1,2021-09-08T11:59:00Z,28.5211,-88.2888,22.0,618.8,11144222
BP,ioos:station:wmo:42375:1,2021-09-08T12:19:00Z,28.5211,-88.2888,22.0,618.9,11144222
BP,ioos:station:wmo:42375:1,2021-09-08T12:39:00Z,28.5211,-88.2888,22.0,618.7,11144222
BP,ioos:station:wmo:42375:1,2021-09-08T12:59:00Z,28.5211,-88.2888,22.0,618.7,11144222
BP,ioos:station:wmo:42375:1,2021-09-08T13:19:00Z,28.5211,-88.2888,22.0,618.8,11144222
BP,ioos:station:wmo:42375:1,2021-09-08T13:39:00Z,28.5211,-88.2888,22.0,618.7,11144222
BP,ioos:station:wmo:42375:1,2021-09-08T13:59:00Z,28.5211,-88.2888,22.0,618.7,11144222
BP,ioos:station:wmo:42375:1,2021-09-08T14:19:00Z,28.5211,-88.2888,22.0,618.7,11144222
BP,ioos:station:wmo:42375:1,2021-09-08T14:39:00Z,28.5211,-88.2888,22.0,618.8,11144222
BP,ioos:station:wmo:42375:1,2021-09-08T14:59:00Z,28.5211,-88.2888,22.0,618.7,11144222
BP,ioos:station:wmo:42375:1,2021-09-08T15:19:00Z,28.5211,-88.2888,22.0,618.7,11144222
BP,ioos:station:wmo:42375:1,2021-09-08T15:39:00Z,28.5211,-88.2888,22.0,618.7,11144222
BP,ioos:station:wmo:42375:1,2021-09-08T15:59:00Z,28.5211,-88.2888,22.0,618.8,11144222
BP,ioos:station:wmo:42375:1,2021-09-08T16:19:00Z,28.5211,-88.2888,22.0,618.7,11144222
BP,ioos:station:wmo:42375:1,2021-09-08T16:39:00Z,28.5211,-88.2888,22.0,618.7,11144222
BP,ioos:station:wmo:42375:1,2021-09-08T16:59:00Z,28.5211,-88.2888,22.0,618.7,11144222
BP,ioos:station:wmo:42375:1,2021-09-08T17:19:00Z,28.5211,-88.2888,22.0,618.7,11144222
BP,ioos:station:wmo:42375:1,2021-09-08T17:39:00Z,28.5211,-88.2888,22.0,618.8,11144222
BP,ioos:station:wmo:42375:1,2021-09-08T17:59:00Z,28.5211,-88.2888,22.0,618.7,11144222
BP,ioos:station:wmo:42375:1,2021-09-08T18:19:00Z,28.5211,-88.2888,22.0,618.9,11144222
BP,ioos:station:wmo:42375:1,2021-09-08T18:39:00Z,28.5211,-88.2888,22.0,618.8,11144222
BP,ioos:station:wmo:42375:1,2021-09-08T18:59:00Z,28.5211,-88.2888,22.0,618.7,11144222
BP,ioos:station:wmo:42375:1,2021-09-08T19:19:00Z,28.5211,-88.2888,22.0,618.7,11144222
BP,ioos:station:wmo:42375:1,2021-09-08T19:39:00Z,28.5211,-88.2888,22.0,618.7,11144222
BP,ioos:station:wmo:42375:1,2021-09-08T19:59:00Z,28.5211,-88.2888,22.0,618.8,11144222
BP,ioos:station:wmo:42375:1,2021-09-08T20:19:00Z,28.5211,-88.2888,22.0,618.7,11144222
BP,ioos:station:wmo:42375:1,2021-09-08T20:39:00Z,28.5211,-88.2888,22.0,618.7,11144222
BP,ioos:station:wmo:42375:1,2021-09-08T20:59:00Z,28.5211,-88.2888,22.0,618.7,11144222
BP,ioos:station:wmo:42375:1,2021-09-08T21:19:00Z,28.5211,-88.2888,22.0,618.7,11144222
BP,ioos:station:wmo:42375:1,2021-09-08T21:39:00Z,28.5211,-88.2888,22.0,618.9,11144222
BP,ioos:station:wmo:42375:1,2021-09-08T21:59:00Z,28.5211,-88.2888,22.0,618.9,11144222
BP,ioos:station:wmo:42375:1,2021-09-08T22:19:00Z,28.5211,-88.2888,22.0,618.8,11144222
BP,ioos:station:wmo:42375:1,2021-09-08T22:39:00Z,28.5211,-88.2888,22.0,618.9,11144222
BP,ioos:station:wmo:42375:1,2021-09-08T22:59:00Z,28.5211,-88.2888,22.0,618.7,11144222
BP,ioos:station:wmo:42375:1,2021-09-08T23:19:00Z,28.5211,-88.2888,22.0,618.7,11144222
BP,ioos:station:wmo:42375:1,2021-09-08T23:39:00Z,28.5211,-88.2888,22.0,618.7,11144222
BP,ioos:station:wmo:42375:1,2021-09-08T23:59:00Z,28.5211,-88.2888,22.0,618.7,11144222
BP,ioos:station:wmo:42375:1,2021-09-09T00:19:00Z,28.5211,-88.2888,22.0,618.7,11144222
BP,ioos:station:wmo:42375:1,2021-09-09T00:39:00Z,28.5211,-88.2888,22.0,618.7,11144222
BP,ioos:station:wmo:42375:1,2021-09-09T00:59:00Z,28.5211,-88.2888,22.0,618.9,11144222
BP,ioos:station:wmo:42375:1,2021-09-09T01:19:00Z,28.5211,-88.2888,22.0,618.9,11144222
BP,ioos:station:wmo:42375:1,2021-09-09T01:39:00Z,28.5211,-88.2888,22.0,618.9,11144222
BP,ioos:station:wmo:42375:1,2021-09-09T01:59:00Z,28.5211,-88.2888,22.0,618.9,11144222
BP,ioos:station:wmo:42375:1,2021-09-09T02:19:00Z,28.5211,-88.2888,22.0,618.9,11144222
BP,ioos:station:wmo:42375:1,2021-09-09T02:39:00Z,28.5211,-88.2888,22.0,618.9,11144222
BP,ioos:station:wmo:42375:1,2021-09-09T02:59:00Z,28.5211,-88.2888,22.0,618.7,11144222
BP,ioos:station:wmo:42375:1,2021-09-09T03:19:00Z,28.5211,-88.2888,22.0,618.7,11144222
BP,ioos:station:wmo:42375:1,2021-09-09T03:39:00Z,28.5211,-88.2888,22.0,618.7,11144222
BP,ioos:station:wmo:42375:1,2021-09-09T03:59:00Z,28.5211,-88.2888,22.0,618.7,11144222
BP,ioos:station:wmo:42375:1,2021-09-09T04:19:00Z,28.5211,-88.2888,22.0,618.8,11144222
BP,ioos:station:wmo:42375:1,2021-09-09T04:39:00Z,28.5211,-88.2888,22.0,618.8,11144222
BP,ioos:station:wmo:42375:1,2021-09-09T04:59:00Z,28.5211,-88.2888,22.0,618.8,11144222
BP,ioos:station:wmo:42375:1,2021-09-09T05:19:00Z,28.5211,-88.2888,22.0,618.7,11144222
BP,ioos:station:wmo:42375:1,2021-09-09T05:39:00Z,28.5211,-88.2888,22.0,618.8,11144222
BP,ioos:station:wmo:42375:1,2021-09-09T05:59:00Z,28.5211,-88.2888,22.0,618.7,11144222
BP,ioos:station:wmo:42375:1,2021-09-09T06:19:00Z,28.5211,-88.2888,22.0,618.7,11144222
BP,ioos:station:wmo:42375:1,2021-09-09T06:39:00Z,28.5211,-88.2888,22.0,618.8,11144222
BP,ioos:station:wmo:42375:1,2021-09-09T06:59:00Z,28.5211,-88.2888,22.0,618.9,11144222
BP,ioos:station:wmo:42375:1,2021-09-09T07:19:00Z,28.5211,-88.2888,22.0,618.8,11144222
BP,ioos:station:wmo:42375:1,2021-09-09T07:39:00Z,28.5211,-88.2888,22.0,618.9,11144222
BP,ioos:station:wmo:42375:1,2021-09-09T07:59:00Z,28.5211,-88.2888,22.0,618.8,11144222
BP,ioos:station:wmo:42375:1,2021-09-09T08:19:00Z,28.5211,-88.2888,22.0,618.9,11144222
BP,ioos:station:wmo:42375:1,2021-09-09T08:39:00Z,28.5211,-88.2888,22.0,618.7,11144222
BP,ioos:station:wmo:42375:1,2021-09-09T08:59:00Z,28.5211,-88.2888,22.0,618.9,11144222
BP,ioos:station:wmo:42375:1,2021-09-09T09:19:00Z,28.5211,-88.2888,22.0,618.9,11144222
BP,ioos:station:wmo:42375:1,2021-09-09T09:39:00Z,28.5211,-88.2888,22.0,618.9,11144222
BP,ioos:station:wmo:42375:1,2021-09-09T09:59:00Z,28.5211,-88.2888,22.0,618.9,11144222
BP,ioos:station:wmo:42375:1,2021-09-09T10:19:00Z,28.5211,-88.2888,22.0,618.9,11144222
BP,ioos:station:wmo:42375:1,2021-09-09T10:39:00Z,28.5211,-88.2888,22.0,618.7,11144222
BP,ioos:station:wmo:42375:1,2021-09-09T10:59:00Z,28.5211,-88.2888,22.0,618.7,11144222
BP,ioos:station:wmo:42375:1,2021-09-09T11:19:00Z,28.5211,-88.2888,22.0,618.9,11144222
BP,ioos:station:wmo:42375:1,2021-09-09T11:39:00Z,28.5211,-88.2888,22.0,618.7,11144222
BP,ioos:station:wmo:42375:1,2021-09-09T11:59:00Z,28.5211,-88.2888,22.0,618.7,11144222
BP,ioos:station:wmo:42375:1,2021-09-09T12:19:00Z,28.5211,-88.2888,22.0,618.9,11144222
BP,ioos:station:wmo:42375:1,2021-09-09T12:39:00Z,28.5211,-88.2888,22.0,618.9,11144222
BP,ioos:station:wmo:42375:1,2021-09-09T12:59:00Z,28.5211,-88.2888,22.0,618.9,11144222
BP,ioos:station:wmo:42375:1,2021-09-09T13:19:00Z,28.5211,-88.2888,22.0,618.7,11144222